Regional Weather Roundup
Issued by NWS

Home | Current Version | Previous Version | Graphics & Text | Print | Product List | Glossary On
Versions: 1 2 3 4 5 6 7 8 9 10 11 12 13 14 15 16 17 18 19 20 21 22 23 24 25 26 27 28 29 30 31 32 33 34 35 36 37 38 39 40 41 42 43 44 45 46 47 48 49 50
000
ASUS43 KMKX 282200
RWRWI

WISCONSIN REGIONAL WEATHER ROUNDUP
NATIONAL WEATHER SERVICE MILWAUKEE/SULLIVAN WI
500 PM CDT TUE JUL 28 2015

NOTE: "FAIR" INDICATES FEW OR NO CLOUDS BELOW 12,000 FEET WITH NO
SIGNIFICANT WEATHER AND/OR OBSTRUCTIONS TO VISIBILITY.

WIZ001-002-006>008-014>016-023>028-282300-
NORTHWEST WISCONSIN

CITY           SKY/WX    TMP DP  RH WIND       PRES   REMARKS
SUPERIOR ARPT  PTSUNNY   84  69  60 SW9G21    29.75F HX  88
ASHLAND        MOSUNNY   84  69  60 SW13G23   29.79F HX  88
HAYWARD        PTSUNNY   83  68  60 S14       29.83S HX  86
SIREN          PTSUNNY   82  68  61 SW8       29.81S HX  85
CUMBERLAND     CLOUDY    79  68  69 SW10      29.84S HX  81
RICE LAKE      PTSUNNY   82  70  66 S8        29.85S HX  86
CHETEK         SUNNY     84  73  69 S7        29.84S HX  89
LADYSMITH      SUNNY     83  70  64 S9        29.87F HX  87
EAU CLAIRE     NOT AVBL
MENOMONIE      SUNNY     86  72  63 S9        29.83S HX  92
NEW RICHMOND   CLOUDY    82  69  66 SW12      29.83R HX  85
OSCEOLA        CLOUDY    82  71  68 SW10      29.84S HX  86
$$

WIZ003>005-009-010-017-018-282300-
NORTH CENTRAL WISCONSIN

CITY           SKY/WX    TMP DP  RH WIND       PRES   REMARKS
MANITOWISH WTR PTSUNNY   81  69  66 S15       29.88F HX  84
ARBOR VITAE    MOSUNNY   80  68  67 S12G17    29.89F HX  82
WOODRUFF       MOSUNNY   80  68  67 S12G17    29.89F HX  82
RHINELANDER    MOSUNNY   82  66  58 S13G18    29.92F HX  84
EAGLE RIVER    CLOUDY    80  64  57 S7        29.91S HX  81
LAND O LAKES   PTSUNNY   81  64  57 S10       29.91S HX  82
PHILLIPS       MOSUNNY   82  69  66 S13       29.87S HX  85
TOMAHAWK       MOSUNNY   81  67  63 SE3       29.91S HX  83
MEDFORD        CLOUDY    79  70  75 S12G17    29.90S HX  81
MERRILL        NOT AVBL
$$

WIZ029-030-035-036-043>047-282300-
CENTRAL WISCONSIN

CITY           SKY/WX    TMP DP  RH WIND       PRES   REMARKS
WAUSAU         PTSUNNY   83  67  58 S10       29.88F HX  85
MOSINEE        NOT AVBL
MARSHFIELD       N/A     79  68  69 S9        29.90R HX  81
STEVENS POINT  PTSUNNY   81  67  63 S9        29.89F HX  83
WAUPACA        CLOUDY    87  69  54 S8        29.90S HX  90
WAUTOMA        NOT AVBL
WISC RAPIDS    PTSUNNY   83  68  60 SW8       29.90S HX  86
CAMP DOUGLAS   NOT AVBL
$$

WIZ011>013-019>022-031-037>040-048>050-282300-
NORTHEAST WISCONSIN

CITY           SKY/WX    TMP DP  RH WIND       PRES   REMARKS
ANTIGO         CLOUDY    78  66  67 S12       29.94S HX  80
SHAWANO        PTSUNNY   86  63  45 SW5       29.91R HX  87
OCONTO         PTSUNNY   84  64  49 S8        29.90R HX  85
STURGEON BAY   PTSUNNY   79  61  53 S9G16     29.94S HX  80
GREEN BAY      PTSUNNY   84  68  58 SE13      29.91R HX  87
MANITOWOC      NOT AVBL
APPLETON       PTSUNNY   84  63  48 S8        29.91R HX  85
CLINTONVILLE   CLOUDY    86  64  48 S10       29.90S HX  87
OSHKOSH        CLOUDY    84  67  56 SE12      29.89R HX  86
$$

WIZ032>034-041-042-053>061-282300-
SOUTHWEST WISCONSIN

CITY           SKY/WX    TMP DP  RH WIND       PRES   REMARKS
LA CROSSE      MOSUNNY   84  72  67 S9        29.86R HX  89
SPARTA         MOSUNNY   83  69  61 S9        29.88R HX  86
VIROQUA        MOSUNNY   81  71  72 S9        29.91R HX  85
BOSCOBEL       PTSUNNY   83  72  69 S6        29.90R HX  88
PRAIRIE DU CHI PTSUNNY   83  69  63 S7        29.89R HX  86
PLATTEVILLE    PTSUNNY   82  74  79 S10       29.93R HX  87
$$

WIZ056-057-062-063-064-067-068-282300-
SOUTH CENTRAL WISCONSIN

CITY           SKY/WX    TMP DP  RH WIND       PRES   REMARKS
REEDSBURG      PTSUNNY   84  73  68 S10       29.89R HX  91
BARABOO/DELLS  PTSUNNY   85  68  56 S15       29.90R HX  88
LONE ROCK      NOT AVBL
MINERAL POINT  PTSUNNY   82  72  69 SW9       29.92R HX  87
MADISON        CLOUDY    84  71  65 S15       29.90R HX  89
MIDDLETON      CLOUDY    83  71  65 S12       29.90S HX  88
WATERTOWN      CLOUDY    84  75  74 S7        29.89R HX  92
MONROE         CLOUDY    81  72  74 S10       29.91S HX  84
JANESVILLE     PTSUNNY   86  72  62 SW9       29.90R HX  92
$$

WIZ051-052-058>065-066-070>072-282300-
SOUTHEAST WISCONSIN

CITY           SKY/WX    TMP DP  RH WIND       PRES   REMARKS
MILWAUKEE      CLOUDY    81  66  60 S7        29.92R HX  83
WAUKESHA       PTSUNNY   81  66  61 S10       29.93R HX  83
MILWAUKEE/TIMM SUNNY     82  63  51 S8        29.92R HX  83
RACINE         CLOUDY    81  66  60 S8        29.93R HX  83
BURLINGTON     CLOUDY    82  67  61 SE5       29.92R HX  84
KENOSHA        CLOUDY    83  69  62 S10       29.92R HX  86
FOND DU LAC    CLOUDY    83  67  58 SE9       29.91R HX  85
SHEBOYGAN      CLOUDY    78  66  66 S10       29.92R HX  80
WEST BEND      CLOUDY    79  63  57 SE9       29.90S HX  80
JUNEAU         CLOUDY    83  71  67 S10       29.90S HX  88
$$

LSZ147-162-282300-
LAKE SUPERIOR

STATION/POSITION TIME  TEMP    WIND        PRES    WAVE
                       AIR SEA DIR/SP/G            HT/PER
                 (UTC) (F)     (DEG/KT/KT) (MB)    (FT/S)
W MID LAKE BUOY  2050   67 62  140/ 10/ 12 1009.1F   1/ 3
DEVILS ISLAND    2100   82     290/  3/  4 1008.1S
SAXON HARBOR     2100   86                 1008.8S
$$

LMZ867-665-643>646-282300-
LAKE MICHIGAN

STATION/POSITION TIME  TEMP    WIND        PRES    WAVE
                       AIR SEA DIR/SP/G            HT/PER
                 (UTC) (F)     (DEG/KT/KT) (MB)    (FT/S)
CHAMBERS ISLAND  2100   81     130/  5/ 11 1012.9F
S GREEN BAY BUOY 2100   80 76  150/ 12/ 14 1013.7F
N MID LAKE BUOY  2050   72 71  150/  6/  6 1013.7F   1
NORTHPORT PIER   2100   75     140/  9/ 13 1013.5F
SISTER BAY       2129   81     160/ 12/ 16   N/A
ALGOMA LAKESHORE 2112          190/  5/  8   N/A
KEWAUNEE LAKESHO 2100   68     170/  4/  5 1012.8F
SHEBOYGAN LAKESH 2000   71     160/ 12/ 12 1013.8F
PORT WASHINGTON  2100   75     160/  6/  8 1012.9F
ATWATER BUOY     2100   73     140/ 12/ 16 1013.4F
MILWAUKEE LAKESH 2100   72     140/ 12/ 13   N/A
KENOSHA   LAKESH 2000   76     150/  8/  9 1013.5F
$$

TC  - TEMPERATURE IN CELSIUS
VSB - VISIBILITY IN STATUTE MILES
WCI - WIND CHILL INDEX
HX  - HEAT INDEX




USA.gov is the U.S. government's official web portal to all federal, state and local government web resources and services.